Regional Weather Roundup
Issued by NWS Little Rock, AR

Home | Current Version | Previous Version | Text Only | Print | Product List | Glossary On
Versions: 1 2 3 4 5 6 7 8 9 10 11 12 13 14 15 16 17 18 19 20 21 22 23 24 25 26 27
000
ASUS44 KLZK 282205
RWRLZK

WEATHER ROUNDUP FOR ARKANSAS
NATIONAL WEATHER SERVICE LITTLE ROCK AR
500 PM CDT SUN AUG 28 2016

NOTE: "FAIR" INDICATES FEW OR NO CLOUDS BELOW 12,000 FEET WITH NO
SIGNIFICANT WEATHER AND/OR OBSTRUCTIONS TO VISIBILITY.

ARZ001-003-010-029-282300-
NORTHWEST ARKANSAS

CITY           SKY/WX    TMP DP  RH WIND       PRES   REMARKS
FAYETTEVILLE   CLOUDY    85  72  65 VRB5      30.08F HX  91
FORT SMITH     CLOUDY    82  70  66 S5        30.02F HX  86
HARRISON       CLOUDY    87  70  56 SE7       30.09F HX  92
BENTONVILLE    CLOUDY    77  66  69 S7        30.10R
ROGERS         CLOUDY    81  68  64 S10       30.10R
SILOAM SPGS    CLOUDY    73  63  68 S9        30.10R
HIGHFILL       CLOUDY    82  71  69 SE12      30.09R HX  86
SPRINGDALE     MOSUNNY   77  70  78 E6        30.11F
$$

ARZ004-005-016-282300-
NORTH CENTRAL ARKANSAS

CITY           SKY/WX    TMP DP  RH WIND       PRES   REMARKS
BATESVILLE     PTSUNNY   77  72  83 W6        30.05R THUNDER
FLIPPIN        SUNNY     90  70  51 E6        30.03F HX  95
MTN HOME       SUNNY     88  69  53 SE7       30.06F HX  92
$$

ARZ040-041-282300-
WEST CENTRAL ARKANSAS

CITY           SKY/WX    TMP DP  RH WIND       PRES   REMARKS
MENA           CLOUDY    84  73  70 CALM      30.06S HX  91
MOUNT IDA      PTSUNNY   84  73  69 CALM      30.02F HX  90
$$

ARZ009-017-025-026-028-282300-
NORTHEAST ARKANSAS

CITY           SKY/WX    TMP DP  RH WIND       PRES   REMARKS
CORNING          N/A     93  73  52 NE8       30.04F HX 102
JONESBORO      CLOUDY    92  71  50 E9        30.02F HX  98
NEWPORT        CLOUDY    85  75  72 CALM      30.03F HX  93
WALNUT RIDGE   SUNNY     90  73  58 E8        30.03F HX  98
BLYTHEVILLE    PTSUNNY   91  75  59 E8        30.03F HX 101
$$

ARZ022-023-033-042-044-282300-
CENTRAL ARKANSAS

CITY           SKY/WX    TMP DP  RH WIND       PRES   REMARKS
LITTLE ROCK    MOSUNNY   94  70  45 E10       30.00F HX 100
N LITTLE ROCK    N/A     91  74  56 E10       29.98F HX 101
JACKSONVILLE   SUNNY     91  74  59 CALM      30.00F HX 100
SEARCY         MOSUNNY   87  75  67 N6        30.04F HX  96
HOT SPRINGS    MOSUNNY   90  72  55 E6        30.02S HX  97
RUSSELLVILLE   SUNNY     90  71  53 E8        30.01F HX  96
$$

ARZ036-282300-
EAST ARKANSAS

CITY           SKY/WX    TMP DP  RH WIND       PRES   REMARKS
WEST MEMPHIS   MOSUNNY   88  74  63 N7        30.00F HX  96
$$

ARZ050-053-066-070-073-282300-
SOUTHWEST ARKANSAS

CITY           SKY/WX    TMP DP  RH WIND       PRES   REMARKS
ARKADELPHIA    MOCLDY    86  78  77 CALM      30.00S HX  98
TEXARKANA      LGT RAIN  77  74  90 SE6       30.02F
EL DORADO      PTSUNNY   81  75  82 NW3       30.01R HX  87
DE QUEEN       CLOUDY    83  72  69 SE12      30.00R HX  88
$$

ARZ056-057-069-282300-
SOUTHEAST ARKANSAS

CITY           SKY/WX    TMP DP  RH WIND       PRES   REMARKS
PINE BLUFF     SUNNY     93  69  45 E10       30.00F HX  98
STUTTGART      SUNNY     93  70  46 E9        30.00F HX  99
MONTICELLO     SUNNY     95  70  44 E10       29.99F HX 101

$$






USA.gov is the U.S. government's official web portal to all federal, state and local government web resources and services.